[[{"header":{"parameterUnit":"m.s-1","parameterCategory":1,"la1":30.2991,"la2":30.254,"lo1":-89.0895,"lo2":-89.0444,"dy":0.0017,"dx":0.0017,"nx":28,"ny":28,"refTime":"2025-02-28T03:00:00:Z","depth":0,"parameterNumber":2,"parameterNumberName":"U-component_of_WINDS"},"data":[0,0,0,0,0,0,0,0,0,0,0,0,0,0,0,0,0,0,0,0,0,0,0,0,0,0,0,0,0,0,0,0,0,0,0,0,0,0,0,0,0,0,0,0,0,0,0,0,0,0,0,0,0,0,0,0,0,0,1.5455,1.5455,0,1.545,1.545,1.545,1.541,1.5409,1.5408,1.5407,1.5403,1.5404,1.5405,0,0,0,0,0,0,0,0,0,0,0,0,0,1.5431,1.5432,1.5455,1.5455,1.5455,1.545,1.545,1.545,1.541,1.5409,1.5407,1.5406,1.5403,1.5404,1.5405,0,0,0,0,0,0,0,0,0,0,0,0,0,1.5435,1.5432,1.5455,1.5434,1.5432,1.545,1.545,1.545,1.541,1.5409,1.5407,1.5406,1.5402,1.5404,1.5405,1.5442,0,0,1.5409,1.5409,0,0,0,0,0,0,0,0,1.5435,1.5436,1.5437,1.5436,1.5434,1.5429,1.544,1.5447,1.541,1.5419,1.5407,1.5405,1.5413,1.5413,1.5416,1.5442,1.5442,1.5409,1.5409,1.541,1.541,0,0,0,0,0,0,0,1.5435,1.5436,1.5453,1.5437,1.5435,1.5426,1.5425,1.5441,1.5424,1.5418,1.5415,1.5415,1.5412,1.5414,1.5415,1.5442,1.5409,1.541,1.5411,1.5411,1.5498,1.55,0,0,0,0,0,0,1.5437,1.5436,1.5453,1.5453,1.5431,1.5427,1.5426,1.5432,1.5424,1.5421,1.5416,1.5413,1.5413,1.5414,1.5415,1.5458,1.541,1.5411,1.5412,1.5497,1.5499,1.5501,0,0,0,0,0,0,1.5437,1.5439,1.5453,1.5444,1.5445,1.5429,1.5436,1.5433,1.5435,1.5423,1.5419,1.5422,1.5412,1.5413,1.5436,1.5457,1.5412,1.5413,1.5495,1.5498,1.55,1.5544,0,0,0,0,0,0,1.5436,1.5439,1.5453,1.5444,1.5445,1.5474,1.5437,1.5434,1.5437,1.5433,1.5427,1.5425,1.5411,1.5434,1.5437,1.5458,1.5414,1.5493,1.5496,1.5499,1.5541,1.5548,1.5554,0,0,0,0,0,1.5436,1.5466,1.5454,1.5456,1.5462,1.5475,1.5476,1.5459,1.5439,1.5453,1.5445,1.5425,1.5454,1.5437,1.5439,1.5461,1.5492,1.5495,1.5499,1.5538,1.5546,1.5554,0,0,0,0,0,0,1.5479,1.5465,1.5451,1.548,1.5479,1.5468,1.5485,1.5468,1.5474,1.5469,1.5448,1.5447,1.5473,1.5469,1.545,1.5497,1.547,1.5474,1.5498,1.5506,1.5513,1.5513,1.5415,0,0,0,0,0,1.5491,1.5503,1.549,1.5516,1.5517,1.5501,1.5506,1.5493,1.5491,1.5491,1.5484,1.5484,1.5493,1.55,1.5507,1.554,1.5538,1.5557,1.5563,1.5569,1.5572,1.5589,1.5597,1.5512,1.5512,1.5512,0,0,1.5518,1.5512,1.552,1.5525,1.5523,1.5535,1.5501,1.5516,1.5525,1.5493,1.5514,1.5509,1.5507,1.5535,1.5547,1.5533,1.5595,1.5573,1.5578,1.5578,1.5594,1.5602,1.5609,1.5515,1.5514,1.5514,0,0,1.5572,1.5569,1.559,1.5589,1.5586,1.5575,1.558,1.5572,1.5568,1.5588,1.5564,1.5575,1.5591,1.5591,1.5593,1.5647,1.5629,1.565,1.5684,1.5701,1.5707,1.5713,1.5732,1.5739,1.5654,1.5654,1.5654,0,1.5606,1.5623,1.5604,1.5619,1.5622,1.5594,1.5615,1.5615,1.5615,1.5617,1.5602,1.5621,1.5618,1.5645,1.5658,1.5661,1.5666,1.565,1.5708,1.5713,1.5719,1.5736,1.5744,1.5657,1.5656,1.5656,1.5656,0,1.5664,1.5676,1.5694,1.5694,1.5699,1.5717,1.5701,1.5708,1.5695,1.5686,1.5707,1.5702,1.5708,1.5713,1.5701,1.5739,1.573,1.5711,1.5683,1.573,1.5746,1.5753,1.566,1.5659,1.5659,1.5658,0,0,1.5745,1.5734,1.5741,1.574,1.5734,1.5744,1.5761,1.5766,1.5773,1.5774,1.5788,1.5802,1.5785,1.5787,1.5774,1.5788,1.5831,1.5768,1.5768,1.5779,1.5872,1.5886,1.5894,1.5819,1.582,1.5821,1.5872,0,1.5797,1.5826,1.5809,1.584,1.5851,1.5824,1.5839,1.5838,1.583,1.5839,1.583,1.584,1.5817,1.5818,1.5831,1.5823,1.5849,1.5819,1.5832,1.5833,1.5833,1.5903,1.5917,1.5965,1.5878,1.588,1.588,0,1.5862,1.5864,1.5897,1.5888,1.5892,1.5906,1.5909,1.5918,1.5916,1.5909,1.5911,1.5895,1.5911,1.5884,1.5907,1.5887,1.5891,1.5888,1.5889,1.5889,1.5859,1.5904,1.598,1.5987,1.589,1.5889,1.5889,0,1.5917,1.5929,1.595,1.595,1.5941,1.5951,1.5948,1.5944,1.5949,1.5952,1.5954,1.596,1.5962,1.5967,1.5952,1.5934,1.5977,1.5948,1.5972,1.5972,1.5982,1.5981,1.6059,1.5986,1.5986,1.5985,1.5985,0,1.5976,1.5997,1.5974,1.5987,1.6009,1.599,1.6012,1.6006,1.6003,1.6014,1.5992,1.6003,1.5983,1.5992,1.5981,1.6001,1.6003,1.5998,1.5995,1.6,1.6,1.6002,1.5998,1.5987,1.5987,1.5986,1.5986,0,1.6042,1.6028,1.6048,1.6038,1.6036,1.6053,1.6044,1.6055,1.6046,1.606,1.6063,1.6049,1.6058,1.6044,1.6052,1.6044,1.6072,1.6064,1.6073,1.607,1.6094,1.6092,1.6175,1.6185,1.6106,1.6107,1.6108,0,1.6081,1.6096,1.6087,1.6092,1.609,1.61,1.6103,1.6085,1.609,1.6088,1.61,1.6108,1.6113,1.6129,1.612,1.6126,1.6117,1.6146,1.6118,1.6123,1.6117,1.6116,1.6117,1.6152,1.6153,1.6154,1.6154,0,1.615,1.6142,1.6148,1.6152,1.6157,1.6159,1.616,1.6166,1.6146,1.6153,1.6162,1.6166,1.6174,1.6182,1.6186,1.6183,1.6166,1.6163,1.6169,1.6174,1.6178,1.6175,1.6088,1.6161,1.6161,1.616,1.616,1.6159,1.6203,1.6215,1.621,1.6218,1.6216,1.6217,1.6227,1.6219,1.6226,1.6231,1.6219,1.6231,1.6229,1.6231,1.6231,1.624,1.6227,1.6236,1.6237,1.624,1.6243,1.6177,1.6241,1.624,1.624,1.624,1.624,0,1.6271,1.6267,1.6274,1.6275,1.6281,1.6263,1.6263,1.6269,1.628,1.6278,1.6284,1.6294,1.6301,1.6293,1.6298,1.6307,1.63,1.631,1.6308,1.6308,1.6254,1.6249,1.6316,1.6316,1.6316,1.6316,1.6316,1.6316,1.6307,1.6326,1.6318,1.6336,1.6331,1.6342,1.6343,1.6344,1.6343,1.6355,1.6361,1.6355,1.6351,1.6356,1.6362,1.6359,1.6362,1.6375,1.6369,1.6319,1.6312,1.6305,1.6299,1.6376,1.6376,1.6422,1.6422,1.6423]},{"header":{"parameterUnit":"m.s-1","parameterCategory":1,"la1":30.2991,"la2":30.254,"lo1":-89.0895,"lo2":-89.0444,"dy":0.0017,"dx":0.0017,"nx":28,"ny":28,"refTime":"2025-02-28T03:00:00:Z","depth":0,"parameterNumber":3,"parameterNumberName":"V-component_of_WINDS"},"data":[0,0,0,0,0,0,0,0,0,0,0,0,0,0,0,0,0,0,0,0,0,0,0,0,0,0,0,0,0,0,0,0,0,0,0,0,0,0,0,0,0,0,0,0,0,0,0,0,0,0,0,0,0,0,0,0,0,0,0.5484,0.5484,0,0.5472,0.5472,0.5472,0.5462,0.5462,0.5462,0.5462,0.5449,0.5449,0.5449,0,0,0,0,0,0,0,0,0,0,0,0,0,0.5497,0.5496,0.5484,0.5484,0.5484,0.5472,0.5472,0.5472,0.5462,0.5462,0.5462,0.5462,0.5449,0.5449,0.5449,0,0,0,0,0,0,0,0,0,0,0,0,0,0.5489,0.5496,0.5484,0.5477,0.5477,0.5473,0.5472,0.5472,0.5462,0.5462,0.5462,0.5462,0.5449,0.5449,0.5449,0.545,0,0,0.5448,0.5447,0,0,0,0,0,0,0,0,0.5489,0.5488,0.5479,0.5478,0.5477,0.5469,0.5472,0.5465,0.5462,0.5468,0.5462,0.5462,0.5456,0.5455,0.5453,0.5449,0.5449,0.5447,0.5447,0.5447,0.5447,0,0,0,0,0,0,0,0.549,0.5489,0.5479,0.5478,0.5477,0.5475,0.5473,0.5471,0.5463,0.5467,0.5466,0.5465,0.5455,0.5453,0.5453,0.5448,0.5447,0.5447,0.5447,0.5447,0.5445,0.5445,0,0,0,0,0,0,0.5491,0.5489,0.548,0.5479,0.5483,0.5475,0.5473,0.5471,0.5463,0.5461,0.5465,0.5465,0.5454,0.5453,0.5452,0.5453,0.5447,0.5447,0.5447,0.5445,0.5445,0.5445,0,0,0,0,0,0,0.5492,0.5491,0.548,0.5484,0.5482,0.5475,0.5473,0.5471,0.5469,0.5461,0.546,0.5465,0.5454,0.5453,0.545,0.5452,0.5447,0.5446,0.5445,0.5445,0.5445,0.5455,0,0,0,0,0,0,0.5492,0.5491,0.5491,0.5484,0.5482,0.5479,0.5473,0.5471,0.5469,0.5468,0.5461,0.5459,0.5454,0.5451,0.545,0.5452,0.5446,0.5445,0.5445,0.5445,0.5454,0.5455,0.5456,0,0,0,0,0,0.5493,0.5494,0.5492,0.549,0.5483,0.5479,0.5478,0.5472,0.5469,0.547,0.5464,0.5459,0.5452,0.5451,0.545,0.5451,0.5444,0.5445,0.5445,0.5454,0.5455,0.5456,0,0,0,0,0,0,0.5502,0.5493,0.549,0.5489,0.5485,0.5478,0.5478,0.5474,0.547,0.5469,0.5461,0.546,0.5459,0.5455,0.5453,0.5452,0.5448,0.5448,0.5455,0.5456,0.5457,0.5458,0.5446,0,0,0,0,0,0.5504,0.5502,0.5494,0.5495,0.5493,0.5486,0.5484,0.548,0.5475,0.5473,0.5467,0.5463,0.5459,0.5457,0.5454,0.5454,0.5452,0.5454,0.5455,0.5456,0.5456,0.5456,0.5457,0.5447,0.5446,0.5446,0,0,0.5508,0.5503,0.5502,0.5496,0.5493,0.5491,0.5484,0.5482,0.5481,0.5472,0.547,0.5466,0.546,0.5459,0.5458,0.5456,0.5459,0.5456,0.5457,0.5457,0.5456,0.5457,0.5458,0.5447,0.5447,0.5447,0,0,0.5514,0.551,0.551,0.5507,0.5501,0.5496,0.5496,0.5489,0.5486,0.5484,0.5478,0.5476,0.547,0.5466,0.5464,0.5469,0.5464,0.5468,0.5473,0.5472,0.5473,0.5474,0.5476,0.5476,0.5468,0.5468,0.5468,0,0.552,0.5517,0.5511,0.5509,0.5507,0.5499,0.5499,0.5496,0.5489,0.5488,0.5485,0.5478,0.5474,0.5471,0.5473,0.5471,0.547,0.5469,0.5474,0.5474,0.5475,0.5476,0.5477,0.5469,0.5468,0.5468,0.5468,0,0.5524,0.5522,0.5522,0.5517,0.5514,0.5513,0.5507,0.5505,0.5501,0.5497,0.5494,0.5489,0.5484,0.5483,0.5479,0.548,0.5479,0.5475,0.5471,0.5476,0.5478,0.5478,0.5469,0.5469,0.5469,0.5469,0,0,0.5536,0.5527,0.5527,0.5524,0.5518,0.5516,0.5515,0.551,0.5509,0.5505,0.5503,0.5499,0.5495,0.5492,0.5488,0.5487,0.5492,0.5483,0.5483,0.5485,0.5493,0.5496,0.5497,0.5489,0.5489,0.5489,0.5493,0,0.5541,0.5539,0.5533,0.5532,0.553,0.5523,0.5522,0.5518,0.5514,0.5511,0.5506,0.5503,0.5499,0.5497,0.5496,0.5491,0.5493,0.5491,0.5487,0.5487,0.5489,0.5497,0.55,0.5505,0.5494,0.5494,0.5494,0,0.5547,0.5543,0.5543,0.5536,0.5535,0.5534,0.553,0.5528,0.5522,0.5519,0.5516,0.5511,0.5509,0.5505,0.5502,0.5501,0.5499,0.5496,0.5496,0.5495,0.5491,0.5497,0.5506,0.5507,0.5495,0.5495,0.5495,0,0.5555,0.5551,0.5549,0.5547,0.554,0.5539,0.5536,0.5531,0.5529,0.5525,0.5523,0.5519,0.5517,0.5514,0.5507,0.5505,0.5505,0.55,0.5502,0.5502,0.5503,0.5503,0.5512,0.5501,0.5501,0.5501,0.5501,0,0.5562,0.5562,0.5553,0.5553,0.5552,0.5545,0.5545,0.5541,0.5537,0.5535,0.5528,0.5527,0.5519,0.5516,0.5511,0.551,0.5509,0.5506,0.5505,0.5506,0.5507,0.5505,0.5504,0.5502,0.5502,0.5502,0.5501,0,0.5571,0.5566,0.5564,0.5557,0.5556,0.5556,0.5549,0.5548,0.5544,0.5542,0.5541,0.5534,0.553,0.5524,0.5519,0.5515,0.5515,0.5512,0.5517,0.5516,0.5518,0.5518,0.5526,0.5527,0.5516,0.5516,0.5516,0,0.5576,0.5576,0.5569,0.5567,0.5565,0.5562,0.556,0.5554,0.5551,0.5546,0.5545,0.5542,0.5538,0.5533,0.5527,0.5523,0.5521,0.5524,0.552,0.5522,0.5521,0.5521,0.5521,0.5525,0.5525,0.5525,0.5525,0,0.5584,0.5582,0.5579,0.5575,0.5573,0.557,0.5566,0.5565,0.5558,0.5556,0.5552,0.555,0.5545,0.5541,0.5536,0.5532,0.5527,0.5527,0.5527,0.5529,0.5531,0.553,0.5519,0.5526,0.5526,0.5526,0.5526,0.5526,0.5591,0.5591,0.5586,0.5583,0.558,0.5577,0.5575,0.5571,0.5568,0.5564,0.556,0.5557,0.5552,0.5545,0.5541,0.5539,0.5536,0.5537,0.5537,0.5537,0.5538,0.5532,0.5538,0.5538,0.5538,0.5538,0.5538,0,0.5599,0.5596,0.5594,0.5589,0.5587,0.5583,0.5579,0.5577,0.5574,0.557,0.5567,0.5563,0.556,0.5554,0.555,0.5549,0.5546,0.5548,0.5548,0.5547,0.554,0.554,0.555,0.555,0.555,0.555,0.555,0.555,0.5603,0.5602,0.5599,0.5596,0.5593,0.559,0.5588,0.5585,0.5582,0.5578,0.5575,0.5571,0.5566,0.5561,0.5558,0.5556,0.5555,0.5557,0.5555,0.5548,0.5547,0.5546,0.5546,0.5557,0.5557,0.5561,0.5561,0.5562]}]]